Terminal Aerodrome Forecast
Issued by NWS

Home | Current Version | Previous Version | Text Only | Print | Product List | Glossary On
Versions: 1 2 3 4 5 6 7 8 9 10
000
FTUS42 TJSJ 282300
TAFKPK
TAF
TKPK 282324Z 2900/2924 06010KT P6SM SCT018
     FM291500 07013KT P6SM SCT025 SCT045
     FM292300 08010KT P6SM FEW020 FEW030
      AMD NOT SKED TIL 291100=

USA.gov is the U.S. government's official web portal to all federal, state and local government web resources and services.